Weather History for Milton, FL

Change the Weather History Date:

Monday, February 25, 2013

  Actual Average (KNSE) Record (KNSE)
Temperature  
Mean Temperature 65 °F -  
Max Temperature 68 °F 64 °F 82 °F (2011)
Min Temperature 62 °F 46 °F 34 °F (1999)
Growing Degree Days 15 (Base 50)    
Moisture  
Dew Point 60 °F    
Average Humidity 88    
Maximum Humidity 94    
Minimum Humidity 73    
Precipitation  
Precipitation 0.15 in - - ()
Sea Level Pressure  
Sea Level Pressure 29.61 in    
Wind  
Wind Speed 13 mph (SE)    
Max Wind Speed 22 mph    
Max Gust Speed 29 mph    
Visibility 9 miles    
Events Rain , Thunderstorm    
Averages and records for this station are not official NWS values.
T = Trace of Precipitation, MM = Missing Value Source: NWS Daily Summary

Daily Weather History Graph

Daily Weather History Graph

Search for Another Location

Airport:

Trip Planner

Search our weather history database for the weather conditions in past years. The results will help you decide how hot, cold, wet, or windy it might be!

Date:

Astronomy

Feb. 25, 2013 Rise Set
Actual Time 6:18 AM CST 5:44 PM CST
Civil Twilight 5:54 AM CST 6:08 PM CST
Nautical Twilight 5:26 AM CST 6:36 PM CST
Astronomical Twilight 4:58 AM CST 7:04 PM CST
Moon 5:52 PM CST (2/25) 5:51 AM CST (2/25)
Length of Visible Light 12h 14m
Length of Day
11h 25m
Full, 100% of the Moon is Illuminated
Feb 25
Full
Feb 25
Full
Mar 4
Last Quarter
Mar 11
New
Mar 19
First Quarter

Hourly Weather History & Observations

Time (CST) Temp. Dew Point Humidity Pressure Visibility Wind Dir Wind Speed Gust Speed Precip Events Conditions
2:56 PM 68.0 °F 59.0 °F 73% 29.66 in 10.0 mi ESE 13.8 mph - N/A   Mostly Cloudy
3:56 PM 64.9 °F 57.9 °F 78% 29.66 in 10.0 mi ESE 12.7 mph - N/A   Overcast
4:23 PM 64.4 °F 57.2 °F 77% 29.68 in 10.0 mi ESE 11.5 mph - 0.00 in   Overcast
4:40 PM 64.4 °F 57.2 °F 77% 29.69 in 10.0 mi ESE 10.4 mph - 0.00 in Thunderstorm Thunderstorm
4:56 PM 64.0 °F 57.9 °F 80% 29.65 in 10.0 mi ESE 6.9 mph - 0.00 in Thunderstorm Thunderstorm
5:04 PM 64.4 °F 57.2 °F 77% 29.69 in 10.0 mi ESE 9.2 mph 16.1 mph N/A   Overcast
5:31 PM 62.6 °F 59.0 °F 88% 29.67 in 10.0 mi ESE 13.8 mph - 0.01 in Rain Light Rain
5:39 PM 62.6 °F 59.0 °F 88% 29.65 in 10.0 mi ESE 15.0 mph - 0.01 in   Overcast
5:56 PM 62.1 °F 59.0 °F 90% 29.60 in 10.0 mi East 15.0 mph 23.0 mph 0.01 in   Overcast
6:12 PM 62.6 °F 59.0 °F 88% 29.62 in 10.0 mi East 15.0 mph - 0.00 in Rain Rain
6:45 PM 62.6 °F 59.0 °F 88% 29.62 in 10.0 mi ESE 15.0 mph - 0.00 in Rain Light Rain
6:56 PM 62.1 °F 59.0 °F 90% 29.58 in 10.0 mi ESE 17.3 mph 23.0 mph N/A Rain Light Rain
7:14 PM 62.6 °F 60.8 °F 94% 29.62 in 10.0 mi ESE 15.0 mph - N/A Thunderstorm Thunderstorm
7:56 PM 62.1 °F 60.1 °F 93% 29.58 in 10.0 mi ESE 11.5 mph - N/A Thunderstorm Thunderstorm
8:17 PM 62.6 °F 60.8 °F 94% 29.62 in 10.0 mi SE 9.2 mph - 0.01 in Rain Light Rain
8:31 PM 62.6 °F 60.8 °F 94% 29.62 in 10.0 mi South 9.2 mph - 0.01 in   Overcast
8:56 PM 63.0 °F 60.1 °F 90% 29.58 in 7.0 mi SSE 15.0 mph - 0.01 in Rain Rain
9:22 PM 62.6 °F 60.8 °F 94% 29.60 in 10.0 mi SSE 13.8 mph - N/A   Overcast
9:56 PM 64.9 °F 62.1 °F 90% 29.56 in 10.0 mi SE 17.3 mph 25.3 mph N/A Rain Light Rain
10:28 PM 66.2 °F 62.6 °F 88% 29.58 in 10.0 mi SSE 18.4 mph 24.2 mph N/A Rain Rain
10:35 PM 64.4 °F 62.6 °F 94% 29.56 in 7.0 mi SSE 17.3 mph - N/A Rain Heavy Rain
10:56 PM 64.9 °F 63.0 °F 93% 29.52 in 5.0 mi SE 21.9 mph 28.8 mph N/A Rain Heavy Rain
11:11 PM 64.4 °F 62.6 °F 94% 29.56 in 7.0 mi SSE 13.8 mph - 0.02 in Rain Heavy Rain
11:41 PM 66.2 °F 62.6 °F 88% 29.54 in 7.0 mi SSE 18.4 mph 23.0 mph 0.09 in Rain Rain
11:56 PM 66.0 °F 64.0 °F 93% 29.50 in 4.0 mi SSE 13.8 mph - 0.13 in Rain Heavy Rain